Погода в Новом

Россия / Республика Адыгея     45°00′19″N   38°58′36″E
темп.,
°C
ветер,
м/с
пор.,
м/с
влажн.,
%
обл.,
%
осадки,
мм/ч
давл.,
гПа
погр.,
м
14 апреля, ср
ср1400:00+9ссз1289100 0.0 102047
03:00+9всв0193100 0.8 102055
06:00+9юз2696100 2.8 1019387
09:00+10зюз468437 2.9 1019445
12:00+14зюз346796 0.0 1019937
15:00+15зюз345711 0.1 10181142
18:00+14ююз3562100 0.0 1017423
21:00+10ююз24687 0.0 1018117
15 апреля, чт
чт1500:00+9ююв247734 0.0 1017101
03:00+8ююв23844 0.0 101748
06:00+7юв23771 0.0 101751
09:00+13юв346368 0.0 1018316
12:00+19ююз354388 0.0 10171346
15:00+19зюз464699 0.0 10161860
18:00+16сз225799 0.0 1017462
21:00+13зсз11708 0.0 101837
16 апреля, пт
пт1600:00+11з2379100 0.0 101763
03:00+9сз128898 0.0 101863
06:00+8ссз2283100 0.0 101869
09:00+10ссз0077100 0.3 1020237
12:00+9вюв2296100 12.1 1020204
15:00+12ююв238189 13.3 1020625
18:00+12юв218399 0.0 1020260
21:00+9юв239398 0.0 102195
17 апреля, сб
сб1700:00+10сз2292100 0.0 1021115
03:00+9з248332 0.0 1021176
06:00+7зсз238898 0.0 102286
09:00+11з2370100 0.0 1023528
12:00+14з2354100 0.0 10221138
15:00+14сз2253100 0.0 1022974
18:00+14сз01565 0.0 1022585
21:00+9ссв24746 0.0 1022123
18 апреля, вс
вс1800:00+8св2478100 0.0 1021112
03:00+7св2578100 0.0 1020139
06:00+7всв3691100 1.1 1020232
09:00+8всв3696100 3.5 1019235
12:00+9всв2696100 1.1 1019253
15:00+9св3698100 5.5 1020288
18:00+9в3897100 1.8 1020328
21:00+9в3796100 2.3 1021307